SCP
0 0 0 0 0 0 0 0 0 0 0 0 0 0 0 0 0 0 0 0 0 0
0 0 0 0 0 0 0 0 0 0 0 0 0 0 0 0 0 0 0 0 0 0
0 0 0 0 0 0 0 0 0 0 0 0 0 0 0 0 0 0 0 0 0 0
0 0 0 0 0 0 0 0 0 0 0 0 0 0 0 0 0 0 0 0 0 0
0 0 0 0 0 0 0 0 0 0 0 0 0 0 0 -0 0 0 0 0 0 0
0 0 0 0 0 0 0 0 0 0 0 0 0 0 0 -0 -0 -0 0 0 0 0
0 0 0 0 0 0 0 0 0 0 0 0 0 0 0 0 0 0 0 0 0 0
0 0 0 0 0 0 0 0 0 0 0 0 0 0 0 -0 -0 0 0 0 0 0
0 0 0 0 0 0 0 0 0 0 0 0 0 0 -0 0 -0 0 0 0 0 0
0 0 0 0 0 0 0 0 0 0 0 0 0 -0 -0 -0 -0 0 0 0 0 0
0 0 0 0 0 0 0 0 0 0 0 0 -0 -0 -0 -0 -0 0 0 0 0 0
0 0 0 0 0 0 0 0 0 0 0 -0 -0 -0 -0 -0 0 0 0 0 0 0
0 0 0 0 0 0 0 0 0 0 0 0 0 -0 -0 0 0 0 0 0 0 0
0 0 0 0 0 0 0 0 -0 -0 0 0 -0 0 0 0 0 0 0 0 0 0
Wind_Speed_500mb
54 58 61 59 56 57 47 43 44 44 46 44 43 43 44 41 45 50 58 58 62 67
46 49 55 60 57 52 44 44 42 47 49 50 45 45 47 45 46 49 53 49 52 60
50 50 53 49 45 47 47 46 52 54 59 57 56 55 49 43 40 41 42 39 40 46
46 53 49 44 42 42 48 51 57 61 71 57 58 50 41 39 38 36 40 30 31 34
50 54 57 49 44 43 44 52 60 65 55 52 44 38 33 32 32 31 26 26 25 17
46 47 43 46 50 48 49 62 60 50 46 43 38 33 32 24 31 26 24 32 26 16
48 52 52 51 46 53 62 54 50 45 44 38 36 31 25 26 22 22 20 24 35 30
52 53 52 47 54 62 58 46 45 40 40 35 32 29 22 20 19 22 17 19 25 37
56 53 47 50 63 57 46 46 42 38 37 35 28 23 17 24 17 14 17 16 16 23
54 50 45 58 55 50 55 50 39 36 29 30 19 15 13 18 20 14 15 15 20 22
52 46 52 56 58 59 52 40 33 19 30 23 17 17 13 13 13 14 14 16 17 20
45 51 51 58 58 48 40 38 29 23 21 14 16 15 14 17 13 14 15 20 19 19
45 53 55 53 47 40 37 38 25 23 12 11 15 12 21 19 16 17 18 19 21 25
48 54 51 45 38 34 34 35 19 10 9 8 13 16 25 23 21 18 21 18 21 16
Wind_Direction_500mb
304 299 297 293 291 292 293 292 296 296 292 289 290 288 284 288 286 271 260 264 254 241
308 308 307 304 292 292 292 291 295 289 291 292 286 288 288 287 287 279 266 265 255 245
304 308 308 308 297 291 291 292 291 287 294 290 290 287 283 286 288 279 267 265 258 241
307 311 305 300 299 295 290 293 295 297 299 293 288 287 277 277 281 290 264 262 241 223
312 307 302 296 300 303 302 296 298 296 297 298 294 286 267 271 275 283 270 257 244 196
313 309 307 302 303 307 304 305 306 301 299 297 294 286 262 275 277 271 271 236 226 236
316 317 313 308 310 303 311 308 310 305 298 294 289 283 263 254 267 264 258 236 220 221
314 313 314 314 311 316 313 303 309 309 308 292 278 276 256 260 259 252 251 236 220 215
316 318 319 311 322 323 321 317 301 295 310 301 274 264 240 257 246 229 234 222 207 199
322 321 321 327 331 330 328 322 320 303 293 304 249 245 247 223 219 217 202 201 199 190
328 328 329 331 336 330 331 331 327 312 317 303 224 226 209 202 196 210 203 196 179 165
329 335 339 336 333 338 340 341 336 312 300 262 206 224 200 186 195 176 175 182 170 163
332 343 340 339 341 342 343 346 332 316 329 173 189 200 182 173 169 162 160 158 171 164
344 346 344 343 346 347 348 344 339 355 121 128 187 175 172 178 169 177 164 158 148 172
Wind_Speed_850mb
54 58 61 59 56 57 47 43 44 44 46 44 43 43 44 41 45 50 58 58 62 67
46 49 55 60 57 52 44 44 42 47 49 50 45 45 47 45 46 49 53 49 52 60
50 50 53 49 45 47 47 46 52 54 59 57 56 55 49 43 40 41 42 39 40 46
46 53 49 44 42 42 48 51 57 61 71 57 58 50 41 39 38 36 40 30 31 34
50 54 57 49 44 43 44 52 60 65 55 52 44 38 33 32 32 31 26 26 25 17
46 47 43 46 50 48 49 62 60 50 46 43 38 33 32 24 31 26 24 32 26 16
48 52 52 51 46 53 62 54 50 45 44 38 36 31 25 26 22 22 20 24 35 30
52 53 52 47 54 62 58 46 45 40 40 35 32 29 22 20 19 22 17 19 25 37
56 53 47 50 63 57 46 46 42 38 37 35 28 23 17 24 17 14 17 16 16 23
54 50 45 58 55 50 55 50 39 36 29 30 19 15 13 18 20 14 15 15 20 22
52 46 52 56 58 59 52 40 33 19 30 23 17 17 13 13 13 14 14 16 17 20
45 51 51 58 58 48 40 38 29 23 21 14 16 15 14 17 13 14 15 20 19 19
45 53 55 53 47 40 37 38 25 23 12 11 15 12 21 19 16 17 18 19 21 25
48 54 51 45 38 34 34 35 19 10 9 8 13 16 25 23 21 18 21 18 21 16
Wind_Direction_850mb
304 299 297 293 291 292 293 292 296 296 292 289 290 288 284 288 286 271 260 264 254 241
308 308 307 304 292 292 292 291 295 289 291 292 286 288 288 287 287 279 266 265 255 245
304 308 308 308 297 291 291 292 291 287 294 290 290 287 283 286 288 279 267 265 258 241
307 311 305 300 299 295 290 293 295 297 299 293 288 287 277 277 281 290 264 262 241 223
312 307 302 296 300 303 302 296 298 296 297 298 294 286 267 271 275 283 270 257 244 196
313 309 307 302 303 307 304 305 306 301 299 297 294 286 262 275 277 271 271 236 226 236
316 317 313 308 310 303 311 308 310 305 298 294 289 283 263 254 267 264 258 236 220 221
314 313 314 314 311 316 313 303 309 309 308 292 278 276 256 260 259 252 251 236 220 215
316 318 319 311 322 323 321 317 301 295 310 301 274 264 240 257 246 229 234 222 207 199
322 321 321 327 331 330 328 322 320 303 293 304 249 245 247 223 219 217 202 201 199 190
328 328 329 331 336 330 331 331 327 312 317 303 224 226 209 202 196 210 203 196 179 165
329 335 339 336 333 338 340 341 336 312 300 262 206 224 200 186 195 176 175 182 170 163
332 343 340 339 341 342 343 346 332 316 329 173 189 200 182 173 169 162 160 158 171 164
344 346 344 343 346 347 348 344 339 355 121 128 187 175 172 178 169 177 164 158 148 172